When you browse on this site, cookies collect data to enhance your experience and personalize the content and advertising you see.
Visit our Privacy Policy to learn more. By continuing to use the site, you agree to this use of cookies and data.
  • Em Portugal
  • Lista de países
  • Para 7 dias
  • Temperatura da água
  • Mapas de satélite
  • Mapa do tempo
  • Widgets de tempo
  • user-avatar
    Iniciar Sessão

    Previsão horária em Durres

    Hoje, 21 Janeiro, Segunda-feira

    Tempo Temperatura Precipitação Vento Pressão Humidade
    00:00 +7°C° 0.1 mm 3 m/s 760 mmHg 78%
    01:00 +7°C° 0.1 mm 3 m/s 760 mmHg 77%
    02:00 +7°C° 0 mm 3 m/s 760 mmHg 75%
    03:00 +7°C° 0 mm 3 m/s 759 mmHg 74%
    04:00 +7°C° 0 mm 3 m/s 759 mmHg 73%
    05:00 +5°C° 0 mm 3 m/s 759 mmHg 72%
    06:00 +5°C° 0 mm 3 m/s 759 mmHg 71%
    07:00 +5°C° 0 mm 3 m/s 759 mmHg 70%
    08:00 +8°C° 0 mm 3 m/s 759 mmHg 65%
    09:00 +9°C° 0 mm 3 m/s 760 mmHg 60%
    10:00 +11°C° 0 mm 3 m/s 760 mmHg 55%
    11:00 +12°C° 0 mm 3 m/s 759 mmHg 52%
    12:00 +14°C° 0 mm 2 m/s 759 mmHg 49%
    13:00 +15°C° 0 mm 2 m/s 759 mmHg 45%
    14:00 +14°C° 0 mm 2 m/s 759 mmHg 49%
    15:00 +14°C° 0 mm 2 m/s 759 mmHg 53%
    16:00 +13°C° 0 mm 1 m/s 759 mmHg 57%
    17:00 +12°C° 0.1 mm 2 m/s 759 mmHg 61%
    18:00 +10°C° 0.1 mm 3 m/s 759 mmHg 64%
    19:00 +8°C° 0.1 mm 4 m/s 759 mmHg 68%
    20:00 +8°C° 0.2 mm 4 m/s 759 mmHg 68%
    21:00 +7°C° 0.2 mm 5 m/s 759 mmHg 69%
    22:00 +7°C° 0.2 mm 5 m/s 759 mmHg 69%
    23:00 +7°C° 0.2 mm 5 m/s 759 mmHg 68%

    Amanhã, 22 Janeiro, Terça-feira

    Tempo Temperatura Precipitação Vento Pressão Humidade
    00:00 +7°C° 0.2 mm 5 m/s 759 mmHg 68%
    01:00 +7°C° 0.2 mm 6 m/s 759 mmHg 68%
    02:00 +7°C° 0.7 mm 6 m/s 758 mmHg 70%
    03:00 +7°C° 0.7 mm 6 m/s 757 mmHg 72%
    04:00 +7°C° 0.7 mm 6 m/s 757 mmHg 75%
    05:00 +6°C° 0.4 mm 7 m/s 757 mmHg 73%
    06:00 +7°C° 0.4 mm 8 m/s 756 mmHg 72%
    07:00 +7°C° 0.4 mm 9 m/s 756 mmHg 71%
    08:00 +7°C° 0.5 mm 8 m/s 756 mmHg 70%
    09:00 +9°C° 0.5 mm 8 m/s 755 mmHg 69%
    10:00 +10°C° 0.5 mm 8 m/s 755 mmHg 68%
    11:00 +10°C° 1.5 mm 8 m/s 754 mmHg 70%
    12:00 +10°C° 1.5 mm 9 m/s 754 mmHg 71%
    13:00 +10°C° 1.5 mm 9 m/s 753 mmHg 72%
    14:00 +10°C° 0.6 mm 9 m/s 752 mmHg 73%
    15:00 +10°C° 0.6 mm 9 m/s 752 mmHg 74%
    16:00 +8°C° 0.6 mm 9 m/s 751 mmHg 76%
    17:00 +8°C° 0.6 mm 9 m/s 751 mmHg 76%
    18:00 +9°C° 0.6 mm 8 m/s 751 mmHg 77%
    19:00 +7°C° 0.6 mm 8 m/s 750 mmHg 78%
    20:00 +7°C° 0.8 mm 8 m/s 750 mmHg 79%
    21:00 +7°C° 0.8 mm 8 m/s 750 mmHg 79%
    22:00 +7°C° 0.8 mm 8 m/s 750 mmHg 79%
    23:00 +7°C° 1 mm 8 m/s 750 mmHg 82%

    Depois de amanhã, 23 Janeiro, Quarta-feira

    Tempo Temperatura Precipitação Vento Pressão Humidade
    00:00 +7°C° 1 mm 8 m/s 750 mmHg 85%
    01:00 +7°C° 1 mm 8 m/s 750 mmHg 89%
    02:00 +7°C° 0.5 mm 8 m/s 750 mmHg 89%
    03:00 +6°C° 0.5 mm 8 m/s 751 mmHg 89%
    04:00 +6°C° 0.5 mm 8 m/s 751 mmHg 90%
    05:00 +5°C° 0.7 mm 7 m/s 751 mmHg 90%
    06:00 +5°C° 0.7 mm 7 m/s 751 mmHg 90%
    07:00 +5°C° 0.7 mm 7 m/s 751 mmHg 91%
    08:00 +6°C° 0.8 mm 7 m/s 751 mmHg 84%
    09:00 +8°C° 0.8 mm 7 m/s 751 mmHg 78%
    10:00 +9°C° 0.8 mm 7 m/s 751 mmHg 72%
    11:00 +10°C° 0.2 mm 7 m/s 751 mmHg 68%
    12:00 +10°C° 0.2 mm 7 m/s 751 mmHg 64%
    13:00 +11°C° 0.2 mm 7 m/s 751 mmHg 60%
    14:00 +11°C° 0 mm 6 m/s 750 mmHg 61%
    15:00 +10°C° 0 mm 6 m/s 750 mmHg 63%
    16:00 +10°C° 0 mm 5 m/s 750 mmHg 64%
    17:00 +9°C° 0 mm 5 m/s 750 mmHg 66%
    18:00 +8°C° 0 mm 4 m/s 749 mmHg 67%
    19:00 +8°C° 0 mm 3 m/s 749 mmHg 68%
    20:00 +7°C° 0 mm 4 m/s 749 mmHg 68%
    21:00 +7°C° 0 mm 4 m/s 749 mmHg 68%
    22:00 +7°C° 0 mm 4 m/s 749 mmHg 68%
    23:00 +7°C° 0.2 mm 4 m/s 748 mmHg 70%

    24 Janeiro, Quinta-feira

    Tempo Temperatura Precipitação Vento Pressão Humidade
    00:00 +7°C° 0.2 mm 4 m/s 747 mmHg 73%
    01:00 +8°C° 0.2 mm 3 m/s 747 mmHg 75%
    02:00 +7°C° 0.7 mm 4 m/s 746 mmHg 75%
    03:00 +7°C° 0.7 mm 4 m/s 745 mmHg 75%
    04:00 +7°C° 0.7 mm 4 m/s 745 mmHg 75%
    05:00 +6°C° 0 mm 5 m/s 744 mmHg 74%
    06:00 +5°C° 0 mm 6 m/s 744 mmHg 73%
    07:00 +5°C° 0 mm 6 m/s 744 mmHg 72%
    08:00 +8°C° 0 mm 7 m/s 744 mmHg 68%
    09:00 +9°C° 0 mm 7 m/s 743 mmHg 64%
    10:00 +11°C° 0 mm 7 m/s 743 mmHg 60%
    11:00 +12°C° 0 mm 7 m/s 743 mmHg 60%
    12:00 +13°C° 0 mm 6 m/s 743 mmHg 60%
    13:00 +14°C° 0 mm 5 m/s 743 mmHg 60%
    14:00 +13°C° 0.5 mm 5 m/s 743 mmHg 67%
    15:00 +12°C° 0.5 mm 5 m/s 743 mmHg 74%
    16:00 +10°C° 0.5 mm 5 m/s 744 mmHg 80%
    17:00 +9°C° 0.5 mm 5 m/s 744 mmHg 81%
    18:00 +9°C° 0.5 mm 5 m/s 745 mmHg 82%
    19:00 +8°C° 0.5 mm 5 m/s 745 mmHg 83%
    20:00 +8°C° 0 mm 5 m/s 745 mmHg 80%
    21:00 +8°C° 0 mm 6 m/s 745 mmHg 78%
    22:00 +7°C° 0 mm 6 m/s 745 mmHg 75%
    23:00 +6°C° 0 mm 7 m/s 745 mmHg 74%

    25 Janeiro, Sexta-feira

    Tempo Temperatura Precipitação Vento Pressão Humidade
    00:00 +6°C° 0 mm 7 m/s 745 mmHg 73%
    01:00 +6°C° 0 mm 7 m/s 745 mmHg 73%
    02:00 +6°C° 1.2 mm 7 m/s 746 mmHg 78%
    03:00 +5°C° 1.2 mm 6 m/s 746 mmHg 82%
    04:00 +5°C° 1.2 mm 6 m/s 747 mmHg 87%
    05:00 +5°C° 0.5 mm 6 m/s 747 mmHg 87%
    06:00 +5°C° 0.5 mm 6 m/s 748 mmHg 86%
    07:00 +5°C° 0.5 mm 6 m/s 748 mmHg 85%
    08:00 +5°C° 0 mm 6 m/s 749 mmHg 83%
    09:00 +7°C° 0 mm 5 m/s 749 mmHg 81%
    10:00 +7°C° 0 mm 5 m/s 749 mmHg 79%
    11:00 +8°C° 0.1 mm 5 m/s 749 mmHg 77%
    12:00 +8°C° 0.1 mm 5 m/s 749 mmHg 76%
    13:00 +8°C° 0.1 mm 5 m/s 749 mmHg 75%
    14:00 +8°C° 0.3 mm 6 m/s 749 mmHg 76%
    15:00 +8°C° 0.3 mm 6 m/s 749 mmHg 77%
    16:00 +8°C° 0.3 mm 6 m/s 749 mmHg 79%
    17:00 +7°C° 0 mm 6 m/s 749 mmHg 78%
    18:00 +7°C° 0 mm 6 m/s 750 mmHg 78%
    19:00 +5°C° 0 mm 7 m/s 750 mmHg 77%
    20:00 +5°C° 0 mm 7 m/s 750 mmHg 77%
    21:00 +4°C° 0 mm 7 m/s 751 mmHg 76%
    22:00 +4°C° 0 mm 7 m/s 751 mmHg 75%
    23:00 +4°C° 0 mm 7 m/s 751 mmHg 74%

    26 Janeiro, Sábado

    Tempo Temperatura Precipitação Vento Pressão Humidade
    00:00 +3°C° 0 mm 7 m/s 751 mmHg 73%
    01:00 +3°C° 0 mm 6 m/s 752 mmHg 72%
    02:00 +2°C° 0 mm 6 m/s 752 mmHg 72%
    03:00 +2°C° 0 mm 6 m/s 752 mmHg 72%
    04:00 +2°C° 0 mm 6 m/s 752 mmHg 71%
    05:00 +2°C° 0 mm 6 m/s 752 mmHg 71%
    06:00 +2°C° 0 mm 6 m/s 752 mmHg 71%
    07:00 +2°C° 0 mm 6 m/s 753 mmHg 70%
    08:00 +3°C° 0 mm 6 m/s 753 mmHg 66%
    09:00 +5°C° 0 mm 6 m/s 753 mmHg 61%
    10:00 +8°C° 0 mm 6 m/s 753 mmHg 57%
    11:00 +9°C° 0 mm 6 m/s 753 mmHg 55%
    12:00 +10°C° 0 mm 7 m/s 753 mmHg 52%
    13:00 +11°C° 0 mm 7 m/s 753 mmHg 50%
    14:00 +10°C° 0 mm 7 m/s 753 mmHg 54%
    15:00 +9°C° 0 mm 7 m/s 753 mmHg 59%
    16:00 +9°C° 0 mm 7 m/s 753 mmHg 63%
    17:00 +8°C° 0 mm 7 m/s 754 mmHg 65%
    18:00 +5°C° 0 mm 6 m/s 754 mmHg 68%
    19:00 +4°C° 0 mm 6 m/s 755 mmHg 70%
    20:00 +5°C° 0 mm 5 m/s 755 mmHg 70%
    21:00 +4°C° 0 mm 4 m/s 755 mmHg 70%
    22:00 +4°C° 0 mm 4 m/s 755 mmHg 69%
    23:00 +3°C° 0 mm 3 m/s 755 mmHg 69%
    Mostrar mais